FW0929 Weather Reports


Display with metric or nautical units.
time (UTC)temp
F
wind
direction
speed
MPH
gust
MPH
rain 1hr
in
rain 24hr
in
rain mn
in
humidity
%
barometer
mb
20191016113104 44 288 2.0 13.0 0.00 0.00 0.00 81 1016.1
20191016111551 44 227 4.0 15.0 0.00 0.00 0.00 81 1015.9
20191016110117 44 220 2.0 18.0 0.00 0.00 0.00 82 1015.8
20191016104608 44 200 4.0 11.0 0.00 0.00 0.00 82 1015.8
20191016103107 44 248 6.0 16.0 0.00 0.00 0.00 81 1015.7
20191016101618 44 247 3.0 18.0 0.00 0.00 0.00 82 1015.6
20191016100105 44 294 4.0 19.0 0.00 0.00 0.00 82 1015.5
20191016094545 44 207 5.0 17.0 0.00 0.00 0.00 81 1015.3
20191016093040 44 311 2.0 20.0 0.00 0.00 0.00 81 1015.1
20191016091525 44 232 7.0 16.0 0.00 0.00 0.00 81 1014.9
20191016090016 44 225 7.0 20.0 0.00 0.00 0.00 80 1015.0
20191016084548 44 269 1.0 16.0 0.00 0.00 0.00 79 1014.7
20191016083033 43 205 4.0 18.0 0.00 0.00 0.00 80 1014.7
20191016081512 44 287 4.0 17.0 0.00 0.00 0.00 79 1014.6
20191016080008 44 225 3.0 20.0 0.00 0.00 0.00 76 1014.7
20191016074509 45 188 8.0 22.0 0.00 0.00 0.00 75 1014.6
20191016073205 46 183 4.0 17.0 0.00 0.00 0.00 73 1014.4
20191016071707 46 247 7.0 18.0 0.00 0.00 0.00 72 1014.5
20191016070207 46 245 4.0 22.0 0.00 0.00 0.00 71 1014.3
20191016064706 46 175 7.0 19.0 0.00 0.00 0.00 70 1014.1
20191016063152 47 221 4.0 14.0 0.00 0.00 0.00 69 1014.1
20191016061704 47 183 5.0 14.0 0.00 0.00 0.00 68 1014.1
20191016060200 47 217 6.0 22.0 0.00 0.00 0.00 67 1014.1
20191016054725 47 244 7.0 26.0 0.00 0.00 0.00 67 1014.1
20191016053105 47 207 6.0 22.0 0.00 0.00 0.00 70 1014.1
20191016051701 48 212 7.0 15.0 0.00 0.00 0.00 69 1014.1
20191016050059 48 228 5.0 21.0 0.00 0.00 0.00 71 1014.0
20191016044604 48 176 7.0 18.0 0.00 0.00 0.00 72 1014.0
20191016043124 48 221 4.0 16.0 0.00 0.00 0.00 72 1013.9
20191016041606 48 177 3.0 13.0 0.00 0.00 0.00 72 1014.0
20191016040140 49 201 7.0 17.0 0.00 0.00 0.00 72 1014.0
20191016034549 49 159 7.0 16.0 0.00 0.00 0.00 70 1013.8
20191016033122 49 174 7.0 21.0 0.00 0.00 0.00 68 1014.0
20191016031614 49 231 7.0 14.0 0.00 0.00 0.00 70 1014.0
20191016030108 49 196 8.0 18.0 0.00 0.00 0.00 72 1014.2
20191016024628 49 225 3.0 13.0 0.00 0.00 0.00 73 1014.0
20191016023203 50 198 2.0 19.0 0.00 0.00 0.00 72 1014.0
20191016021540 51 204 8.0 20.0 0.00 0.00 0.00 70 1014.1
20191016020142 52 216 3.0 11.0 0.00 0.00 0.00 71 1013.8
20191016014605 52 271 3.0 21.0 0.00 0.00 0.00 71 1013.6
20191016013124 53 189 2.0 15.0 0.00 0.00 0.00 71 1013.5
20191016011554 53 211 3.0 15.0 0.00 0.00 0.00 70 1013.5
20191016010039 53 302 2.0 15.0 0.00 0.00 0.00 72 1013.2
20191016004541 53 200 4.0 13.0 0.00 0.00 0.00 73 1013.1
20191016003050 53 240 5.0 17.0 0.00 0.00 0.00 75 1013.0
20191016001552 53 211 3.0 15.0 0.00 0.00 0.00 75 1012.9
20191016000035 54 155 3.0 23.0 0.00 0.00 0.00 74 1012.7
20191015234553 55 178 12.0 26.0 0.00 0.00 0.00 73 1012.6
20191015233035 56 211 8.0 21.0 0.00 0.00 0.00 71 1012.2
20191015231531 59 259 7.0 18.0 0.00 0.00 0.00 71 1011.8
20191015230059 61 229 8.0 17.0 0.00 0.00 0.00 69 1011.2
20191015224550 61 188 7.0 15.0 0.00 0.00 0.00 74 1010.8
20191015223054 62 217 0.0 4.0 0.00 0.00 0.00 81 1010.5
20191015221524 62 228 0.0 3.0 0.00 0.00 0.00 82 1010.6
20191015220042 62 125 0.0 3.0 0.00 0.00 0.00 83 1010.6
20191015214520 61 98 0.0 4.0 0.00 0.00 0.00 84 1010.6
20191015213011 60 137 0.0 3.0 0.00 0.00 0.00 85 1010.8
20191015211510 59 108 0.0 3.0 0.00 0.00 0.00 86 1010.9
20191015210009 59 132 0.0 5.0 0.00 0.00 0.00 85 1011.0
20191015204516 60 184 1.0 6.0 0.00 0.00 0.00 82 1011.2
20191015203007 60 153 0.0 6.0 0.00 0.00 0.00 78 1011.3
20191015201533 60 91 1.0 6.0 0.00 0.00 0.00 76 1011.4
20191015200005 60 135 0.0 3.0 0.00 0.00 0.00 76 1011.4
20191015194506 60 95 1.0 8.0 0.00 0.00 0.00 75 1011.4
20191015193001 60 136 3.0 11.0 0.00 0.00 0.00 74 1011.3
20191015191722 60 84 1.0 10.0 0.00 0.00 0.00 73 1011.1
20191015190224 60 130 1.0 11.0 0.00 0.00 0.00 73 1011.2
20191015184646 60 140 1.0 10.0 0.00 0.00 0.00 72 1011.4
20191015183153 60 133 1.0 15.0 0.00 0.00 0.00 71 1011.5
20191015181644 59 130 2.0 14.0 0.00 0.00 0.00 72 1011.8
20191015180142 59 123 4.0 14.0 0.00 0.00 0.00 70 1012.3
20191015174653 59 177 2.0 14.0 0.00 0.00 0.00 70 1012.6
20191015173134 59 118 6.0 13.0 0.00 0.00 0.00 68 1012.9
20191015171624 58 76 4.0 14.0 0.00 0.00 0.00 69 1013.2
20191015170048 57 150 2.0 16.0 0.00 0.00 0.00 70 1013.6
20191015164626 57 82 5.0 17.0 0.00 0.00 0.00 69 1013.9
20191015163107 57 112 5.0 13.0 0.00 0.00 0.00 67 1014.3
20191015161559 56 133 1.0 12.0 0.00 0.00 0.00 67 1014.6
20191015160125 56 145 2.0 11.0 0.00 0.00 0.00 66 1015.0
20191015154540 56 143 2.0 10.0 0.00 0.00 0.00 65 1015.1
20191015153045 54 135 0.0 9.0 0.00 0.00 0.00 65 1015.4
20191015151525 54 117 0.0 10.0 0.00 0.00 0.00 66 1015.7
20191015150016 54 110 2.0 11.0 0.00 0.00 0.00 65 1015.9
20191015144513 52 148 1.0 3.0 0.00 0.00 0.00 66 1016.0
20191015143011 51 145 0.0 3.0 0.00 0.00 0.00 67 1015.8
20191015141508 51 121 0.0 5.0 0.00 0.00 0.00 68 1015.7
20191015140151 50 355 0.0 12.0 0.00 0.00 0.00 70 1016.3
20191015134630 49 101 0.0 7.0 0.00 0.00 0.00 70 1017.1
20191015133159 49 48 1.0 5.0 0.00 0.00 0.00 68 1017.2
20191015131723 48 46 0.0 11.0 0.00 0.00 0.00 71 1017.5
20191015130206 48 92 2.0 9.0 0.00 0.00 0.00 72 1017.8
20191015124608 46 118 0.0 10.0 0.00 0.00 0.00 76 1018.1
20191015123059 45 115 1.0 8.0 0.00 0.00 0.00 80 1018.1
20191015121625 44 61 0.0 4.0 0.00 0.00 0.00 83 1018.6
20191015120150 42 39 1.0 3.0 0.00 0.00 0.00 88 1018.9
20191015114559 41 40 0.0 1.0 0.00 0.00 0.00 92 1019.3